Wind_Speed
75 67 58 67 70 70 64 58 57 61 61 60 50 41 45 48 51 56 57 66 70 66 72 61 54 53 53 50 48 43 40 41 37 31 32 30 27 26 26 24 28 27 31 33
81 65 68 70 69 64 59 57 60 62 60 53 40 44 47 52 56 60 63 63 64 70 60 55 54 51 50 47 44 39 38 35 28 30 29 25 24 24 23 24 24 25 31 31
75 72 73 71 67 63 58 57 58 53 47 38 41 47 52 55 59 60 56 58 61 48 50 51 50 46 45 42 38 36 35 28 27 28 24 20 20 23 23 20 21 27 32 26
65 70 70 71 64 61 59 53 49 39 41 48 48 55 55 54 54 54 54 43 41 45 43 45 43 41 39 35 34 32 27 26 27 23 19 17 19 20 21 24 22 26 29 21
50 52 49 61 47 55 45 53 46 43 51 54 55 55 55 53 52 51 42 38 38 34 38 41 34 35 33 30 29 24 24 25 22 19 14 12 13 13 15 17 24 29 26 24
52 56 56 47 48 41 49 41 43 45 45 48 49 51 55 51 48 46 41 31 29 31 34 35 33 31 28 24 21 23 24 25 19 14 9 9 7 11 17 22 31 34 26 21
55 54 50 52 51 50 51 44 44 49 49 54 53 45 51 44 41 42 31 28 23 27 31 28 27 26 22 19 21 24 24 21 14 8 4 5 6 15 18 24 32 34 22 18
61 61 55 57 53 57 53 54 52 53 54 53 47 41 46 37 40 28 29 20 19 25 25 24 25 22 18 20 22 22 22 16 9 5 7 5 8 16 16 24 31 28 20 17
61 59 64 60 65 65 61 52 53 54 51 48 48 50 43 34 29 25 21 16 19 23 27 23 23 18 18 19 21 20 19 13 9 7 9 2 8 13 17 25 32 25 18 17
72 70 69 74 71 64 57 59 56 48 43 46 51 45 36 26 21 20 15 16 17 20 25 22 22 16 17 17 19 18 19 13 8 6 9 3 9 13 14 24 33 23 17 15
76 75 77 76 63 58 60 57 54 51 45 41 42 32 27 25 20 16 15 14 16 18 24 22 21 15 15 14 18 17 18 13 8 5 8 8 11 16 16 22 29 22 15 16
66 76 82 69 66 69 68 63 56 55 43 47 44 28 30 23 22 12 10 11 15 18 24 22 20 13 16 15 17 18 17 14 8 8 12 4 5 14 19 23 27 16 15 16
77 68 74 77 76 73 68 54 47 45 46 33 24 34 26 24 19 11 7 8 14 17 20 24 19 15 16 16 17 18 15 14 9 8 15 6 5 11 19 21 28 15 13 10
76 69 62 57 55 56 50 44 35 31 30 31 35 31 25 24 16 9 6 6 15 14 20 23 23 16 19 17 16 15 15 14 8 8 17 9 6 7 15 18 23 18 8 10
78 70 60 56 54 50 45 38 32 33 34 33 39 28 25 23 15 10 4 7 12 17 19 23 24 21 18 16 16 15 15 17 7 8 18 12 10 5 7 14 22 25 10 8
80 67 64 61 56 48 40 37 31 36 35 40 38 29 27 22 14 10 5 5 12 15 19 20 23 26 19 18 17 16 15 17 9 3 15 15 14 9 3 6 14 21 22 10
79 73 69 59 57 53 42 36 32 33 33 36 33 35 32 22 14 9 6 6 10 14 18 19 20 26 23 18 16 17 17 15 13 6 9 16 14 14 9 4 9 9 18 20
79 75 68 61 63 54 38 39 36 35 37 39 39 40 34 25 17 10 8 9 10 12 15 19 20 22 26 21 15 14 15 15 13 12 4 12 16 15 11 9 8 6 7 14
81 79 72 69 62 52 48 41 38 35 36 37 40 41 36 29 21 16 11 10 11 11 14 17 18 20 23 24 15 14 11 12 12 12 10 8 17 16 14 15 15 11 6 8
89 83 81 72 69 56 52 53 49 47 40 40 43 46 41 33 25 23 14 11 13 9 12 15 16 18 20 21 18 13 11 10 11 9 10 6 2 17 17 15 12 12 11 10
94 93 84 78 75 68 68 62 59 51 42 49 49 52 47 37 33 28 16 13 16 10 12 13 14 16 18 18 20 14 12 10 9 8 5 6 4 2 9 18 17 17 15 14
97 94 88 84 82 78 74 69 70 59 56 52 53 54 50 44 38 29 21 16 18 11 10 11 14 14 16 18 17 19 12 11 6 7 5 4 4 3 3 4 8 11 10 13
99 97 92 89 85 81 79 75 67 64 61 54 46 52 51 48 39 32 24 21 19 19 13 10 13 13 14 17 17 16 17 10 6 4 5 5 4 4 4 4 6 4 4 6
101 100 98 92 89 85 82 75 69 67 62 56 51 47 49 46 42 35 26 21 20 20 15 17 13 13 14 16 17 17 15 15 10 7 5 6 7 6 6 7 6 7 9 10
98 99 98 95 90 86 82 78 75 69 63 58 54 52 49 47 46 39 32 26 23 23 20 20 16 15 15 16 17 18 16 15 14 10 8 7 7 7 9 8 9 11 10 10
97 94 99 97 95 89 85 82 80 72 63 62 59 56 54 54 52 46 34 29 26 26 24 22 20 17 18 17 18 20 18 15 15 13 12 11 11 12 13 12 10 10 12 15
Wind_Direction
252 253 255 253 252 256 263 266 268 270 274 277 277 278 281 282 286 294 303 305 307 311 308 303 304 313 315 309 306 311 308 310 314 309 311 311 300 290 296 291 295 302 305 307
252 255 250 252 255 259 264 267 266 271 273 274 271 274 272 280 292 296 301 309 308 303 305 307 311 313 310 306 307 310 310 315 315 313 315 309 299 299 296 299 305 311 312 316
248 247 250 253 257 262 262 262 266 269 273 275 269 270 279 287 292 294 305 310 307 305 308 309 310 310 308 309 312 312 315 318 321 314 310 303 299 292 294 302 303 322 321 320
243 247 252 256 258 257 262 259 261 261 265 261 263 275 278 284 290 299 308 306 300 300 310 308 310 309 313 317 316 314 321 321 319 310 303 303 299 292 303 308 319 325 327 329
245 243 243 248 247 252 244 252 254 255 256 259 263 273 277 288 297 310 311 294 295 316 311 306 314 314 319 316 317 325 323 324 318 305 301 294 299 316 341 350 354 348 329 336
234 243 254 252 243 241 243 244 244 251 255 264 265 275 279 293 302 308 299 295 310 310 310 313 317 318 324 321 329 329 327 328 311 308 306 279 317 17 10 1 359 352 341 342
228 233 230 235 240 243 247 248 251 255 259 260 267 279 282 295 300 305 286 287 312 331 326 318 322 327 330 331 334 325 328 327 309 307 273 265 359 13 349 352 352 352 352 351
221 228 234 234 235 239 241 244 248 251 254 260 270 283 288 292 295 282 279 297 321 333 334 331 329 333 333 329 332 328 336 327 323 294 247 255 27 4 351 1 355 358 7 4
222 225 227 231 234 236 237 240 244 248 257 268 271 276 285 280 280 267 274 328 337 343 341 328 335 339 335 324 334 339 343 333 320 288 234 257 29 347 358 10 4 8 20 13
221 223 224 226 228 230 234 240 244 255 265 267 269 279 279 253 255 263 279 331 338 349 345 332 345 343 340 338 346 346 352 337 308 272 214 125 35 357 5 14 10 17 28 31
225 225 230 230 231 239 242 248 251 257 261 266 269 266 242 238 241 256 290 325 349 349 347 344 352 348 351 349 353 350 353 339 316 270 200 105 48 11 21 19 10 19 43 57
231 226 231 231 234 236 238 244 254 259 265 266 269 240 224 227 239 251 290 320 358 359 359 360 357 2 357 353 353 354 354 341 315 250 175 152 73 12 28 23 9 38 65 73
226 228 233 229 233 239 246 254 257 262 262 251 223 225 216 223 234 244 282 330 13 9 8 15 3 11 15 356 351 355 357 345 323 236 185 179 95 32 38 31 25 55 70 63
226 226 232 235 241 242 242 243 245 242 235 211 209 216 212 221 222 237 268 344 23 4 16 14 10 360 23 2 352 357 1 354 330 230 191 203 159 82 63 41 35 44 70 68
222 224 224 232 235 234 233 230 213 221 214 201 216 207 209 216 214 233 251 6 10 15 19 14 13 10 21 17 4 7 12 2 338 243 209 195 175 172 74 47 41 39 72 70
222 218 220 226 229 233 229 226 216 222 219 204 214 203 208 214 210 232 250 355 3 10 18 14 12 15 22 21 12 12 14 13 352 263 221 221 196 202 243 351 30 42 46 94
221 218 218 219 227 226 219 227 222 214 219 210 216 208 209 204 204 223 260 313 347 8 13 8 11 14 16 21 21 17 16 16 7 333 225 225 228 224 240 262 1 24 37 46
220 221 219 216 224 221 213 223 223 215 213 213 213 216 209 204 207 211 257 289 329 358 3 6 7 13 14 13 25 25 15 10 15 1 309 240 233 221 225 246 296 334 7 27
216 221 220 217 222 219 215 217 226 225 216 219 220 222 213 198 208 213 228 268 302 351 356 4 357 7 12 9 12 20 23 20 10 12 359 2 222 230 234 245 258 291 307 343
212 214 217 214 219 216 216 215 218 221 216 213 216 221 220 207 204 220 209 254 283 324 347 3 352 4 7 6 10 11 18 23 15 12 10 5 304 240 237 247 248 257 279 297
211 213 215 212 215 212 216 215 216 211 214 211 210 220 218 213 217 219 208 232 269 305 330 346 346 350 356 1 10 12 7 18 17 10 10 3 352 329 241 250 258 262 265 273
212 212 213 216 214 212 215 215 217 208 213 216 207 214 220 218 216 213 209 224 257 272 294 325 329 339 347 349 2 9 4 8 23 4 6 350 350 342 270 253 263 266 270 250
213 213 213 215 218 214 214 218 214 211 213 217 220 216 216 222 216 218 211 219 237 261 273 295 313 328 334 336 346 358 5 352 357 7 352 357 340 304 298 278 246 245 251 238
214 213 212 214 218 218 216 218 217 214 212 216 218 219 224 225 226 224 219 223 235 258 269 283 299 317 320 325 333 337 350 0 354 324 313 331 346 331 290 272 266 255 248 247
215 213 213 213 216 219 220 218 219 219 210 213 218 224 226 230 233 224 223 219 230 248 259 269 283 299 306 313 317 325 329 344 359 337 309 301 318 335 333 304 284 266 262 257
217 217 212 212 215 217 220 218 220 220 217 215 214 219 229 233 235 237 227 226 236 247 256 264 273 286 290 298 304 310 319 325 340 347 324 297 291 287 300 315 307 285 261 254
Height
10722 10736 10753 10739 10742 10748 10760 10766 10763 10758 10762 10767 10763 10763 10763 10763 10758 10754 10749 10740 10733 10729 10722 10714 10703 10694 10688 10682 10676 10670 10664 10658 10653 10647 10642 10635 10631 10628 10624 10623 10619 10612 10605 10598
10711 10734 10720 10725 10730 10740 10749 10751 10749 10748 10750 10757 10754 10754 10756 10757 10751 10747 10740 10732 10723 10721 10709 10700 10691 10684 10679 10675 10669 10663 10656 10653 10648 10641 10636 10631 10627 10625 10622 10618 10614 10608 10601 10594
10701 10701 10703 10710 10723 10732 10734 10737 10734 10737 10739 10744 10744 10744 10747 10747 10741 10739 10732 10723 10713 10706 10700 10694 10685 10679 10674 10668 10661 10656 10651 10647 10643 10637 10632 10629 10626 10622 10619 10615 10610 10605 10598 10591
10685 10687 10692 10701 10711 10715 10723 10719 10723 10728 10732 10733 10736 10735 10740 10741 10734 10733 10725 10714 10707 10701 10694 10688 10681 10674 10668 10661 10656 10651 10647 10643 10639 10634 10631 10627 10624 10622 10618 10614 10608 10602 10594 10588
10676 10670 10675 10686 10693 10701 10708 10708 10715 10720 10723 10724 10727 10728 10731 10729 10725 10722 10718 10712 10703 10698 10690 10683 10676 10668 10663 10657 10651 10648 10644 10640 10635 10631 10629 10626 10624 10621 10617 10612 10606 10599 10592 10586
10657 10659 10670 10680 10682 10695 10687 10702 10706 10711 10713 10717 10718 10721 10724 10720 10719 10716 10712 10707 10700 10694 10684 10675 10669 10663 10658 10652 10648 10646 10641 10636 10632 10629 10627 10626 10624 10620 10616 10610 10604 10596 10588 10584
10643 10652 10658 10665 10673 10679 10683 10692 10699 10700 10705 10706 10713 10712 10714 10712 10712 10710 10708 10704 10696 10687 10679 10671 10664 10659 10654 10650 10647 10643 10638 10634 10630 10628 10626 10626 10624 10620 10615 10609 10601 10593 10586 10581
10627 10636 10648 10656 10663 10667 10674 10678 10687 10692 10692 10698 10704 10703 10703 10702 10705 10703 10704 10700 10689 10683 10675 10667 10661 10657 10652 10649 10646 10641 10636 10632 10629 10627 10627 10627 10624 10620 10614 10608 10601 10592 10586 10581
10617 10628 10634 10643 10642 10650 10663 10674 10671 10680 10687 10691 10694 10694 10697 10695 10700 10697 10698 10692 10685 10678 10670 10665 10660 10654 10650 10647 10644 10639 10636 10631 10628 10627 10628 10628 10625 10620 10616 10609 10601 10593 10587 10582
10599 10607 10613 10615 10622 10641 10659 10655 10667 10677 10679 10679 10683 10688 10690 10689 10694 10692 10692 10687 10683 10676 10669 10663 10658 10652 10649 10646 10641 10638 10634 10630 10628 10628 10629 10629 10626 10621 10617 10611 10603 10596 10591 10587
10585 10597 10596 10602 10635 10644 10646 10651 10659 10664 10669 10671 10675 10680 10682 10686 10689 10688 10687 10684 10679 10673 10667 10660 10654 10650 10648 10645 10640 10637 10633 10631 10628 10628 10630 10630 10628 10623 10619 10613 10606 10600 10596 10593
10580 10582 10581 10613 10618 10617 10626 10638 10648 10656 10662 10666 10671 10673 10676 10681 10682 10683 10683 10681 10676 10670 10663 10656 10653 10649 10647 10644 10640 10637 10633 10631 10629 10629 10630 10630 10629 10626 10621 10615 10610 10604 10602 10600
10552 10575 10577 10595 10602 10612 10630 10640 10645 10649 10653 10660 10664 10663 10672 10674 10677 10678 10679 10677 10673 10667 10663 10656 10652 10648 10645 10643 10640 10637 10633 10631 10629 10629 10631 10631 10630 10628 10623 10620 10615 10610 10609 10606
10542 10563 10579 10596 10609 10611 10620 10629 10635 10640 10646 10649 10654 10661 10666 10670 10673 10674 10676 10673 10668 10667 10659 10655 10651 10647 10644 10642 10639 10636 10633 10631 10629 10629 10630 10630 10630 10630 10626 10624 10621 10616 10614 10613
10529 10553 10574 10585 10593 10602 10612 10619 10626 10631 10635 10646 10646 10657 10661 10666 10668 10669 10671 10668 10667 10663 10659 10654 10650 10646 10643 10641 10638 10636 10633 10630 10629 10629 10631 10631 10631 10631 10630 10627 10626 10622 10620 10619
10522 10548 10561 10569 10581 10594 10607 10612 10621 10623 10628 10636 10642 10653 10657 10660 10662 10664 10665 10664 10664 10661 10657 10654 10650 10645 10642 10641 10638 10636 10634 10631 10629 10629 10631 10633 10633 10632 10632 10630 10629 10627 10626 10625
10514 10531 10545 10564 10572 10582 10596 10609 10616 10621 10623 10631 10638 10642 10650 10656 10656 10659 10660 10661 10661 10659 10655 10655 10650 10646 10642 10640 10638 10636 10635 10633 10631 10630 10631 10632 10633 10633 10633 10633 10632 10631 10630 10629
10507 10518 10538 10555 10554 10570 10598 10600 10607 10614 10618 10623 10628 10633 10643 10649 10651 10654 10656 10656 10657 10657 10655 10653 10649 10646 10643 10641 10639 10636 10635 10634 10632 10630 10630 10630 10632 10634 10634 10634 10634 10634 10633 10633
10495 10504 10523 10536 10553 10570 10582 10592 10600 10606 10613 10618 10623 10627 10637 10644 10648 10650 10652 10653 10653 10655 10654 10651 10649 10646 10643 10642 10639 10637 10634 10634 10633 10631 10630 10628 10630 10633 10635 10636 10636 10635 10635 10635
10478 10489 10499 10525 10535 10558 10571 10573 10582 10587 10600 10609 10614 10619 10628 10638 10645 10644 10648 10649 10648 10651 10652 10650 10647 10645 10644 10643 10640 10637 10635 10633 10634 10633 10631 10630 10630 10632 10634 10635 10637 10637 10637 10637
10460 10467 10488 10507 10518 10534 10540 10554 10564 10578 10590 10587 10599 10606 10616 10630 10631 10638 10643 10645 10644 10647 10648 10649 10647 10645 10643 10643 10640 10637 10635 10633 10633 10633 10633 10632 10630 10630 10632 10634 10635 10637 10638 10638
10445 10459 10476 10488 10498 10512 10523 10536 10544 10567 10569 10576 10585 10593 10603 10613 10622 10632 10637 10640 10640 10643 10646 10647 10646 10645 10643 10642 10640 10638 10636 10633 10632 10632 10633 10633 10632 10631 10631 10632 10634 10634 10635 10636
10428 10444 10460 10474 10486 10502 10512 10521 10542 10554 10563 10574 10589 10593 10596 10604 10615 10625 10632 10636 10638 10637 10640 10643 10644 10643 10642 10641 10640 10638 10636 10634 10631 10631 10632 10633 10633 10632 10632 10632 10633 10633 10634 10634
10408 10426 10441 10462 10472 10487 10501 10518 10532 10543 10560 10572 10581 10589 10598 10602 10609 10618 10625 10629 10631 10631 10634 10636 10640 10640 10640 10639 10638 10638 10636 10634 10632 10630 10630 10631 10632 10632 10632 10631 10631 10632 10633 10633
10387 10413 10431 10450 10464 10476 10493 10509 10522 10534 10550 10564 10575 10582 10588 10594 10599 10610 10618 10623 10626 10626 10628 10631 10633 10635 10636 10636 10636 10636 10636 10633 10631 10630 10629 10630 10630 10631 10631 10631 10630 10630 10631 10632
10377 10394 10415 10436 10449 10464 10475 10495 10510 10525 10540 10550 10562 10572 10578 10582 10588 10596 10610 10618 10621 10621 10621 10624 10626 10630 10631 10632 10633 10632 10632 10632 10630 10629 10627 10628 10628 10628 10628 10629 10629 10629 10628 10628